Time,TemperatureF,DewpointF,PressureIn,WindDirection,WindDirectionDegrees,WindSpeedMPH,WindSpeedGustMPH,Humidity,HourlyPrecipIn,Conditions,Clouds,dailyrainin,SoftwareType,DateUTC
2013-08-06 00:02:00,76.0,73.0,30.01,WNW,291,1.0,2.0,90,-99.99,,,-99.99,,2013-08-06 04:02:00,
2013-08-06 00:22:00,76.0,73.0,30.00,NW,314,3.0,4.0,90,-99.99,,,-99.99,,2013-08-06 04:22:00,
2013-08-06 00:44:00,76.0,73.0,29.99,WSW,240,3.0,4.0,90,-99.99,,,-99.99,,2013-08-06 04:44:00,
2013-08-06 01:02:00,75.0,73.0,29.99,NNW,332,3.0,4.0,91,-99.99,,,-99.99,,2013-08-06 05:02:00,
2013-08-06 01:22:00,75.0,72.0,29.99,NW,320,3.0,4.0,91,-99.99,,,-99.99,,2013-08-06 05:22:00,
2013-08-06 01:32:00,75.0,72.0,29.99,NW,320,3.0,4.0,91,-99.99,,,-99.99,,2013-08-06 05:32:00,
2013-08-06 01:53:00,75.0,72.0,29.97,WSW,254,2.0,4.0,91,-99.99,,,-99.99,,2013-08-06 05:53:00,
2013-08-06 02:02:00,75.0,72.0,29.97,SW,219,1.0,2.0,91,-99.99,,,-99.99,,2013-08-06 06:02:00,
2013-08-06 02:12:00,75.0,72.0,29.97,SW,219,1.0,2.0,91,-99.99,,,-99.99,,2013-08-06 06:12:00,
2013-08-06 02:32:00,75.0,72.0,29.95,WNW,303,3.0,4.0,91,-99.99,,,-99.99,,2013-08-06 06:32:00,
2013-08-06 02:43:00,74.0,72.0,29.94,ESE,119,2.0,3.0,91,-99.99,,,-99.99,,2013-08-06 06:43:00,
2013-08-06 02:52:00,74.0,72.0,29.94,ESE,119,2.0,3.0,91,-99.99,,,-99.99,,2013-08-06 06:52:00,
2013-08-06 03:01:00,74.0,72.0,29.94,ESE,119,1.0,3.0,91,-99.99,,,-99.99,,2013-08-06 07:01:00,
2013-08-06 03:12:00,74.0,72.0,29.94,ESE,119,1.0,3.0,91,-99.99,,,-99.99,,2013-08-06 07:12:00,
2013-08-06 03:32:00,74.0,72.0,29.93,WSW,248,1.0,2.0,91,-99.99,,,-99.99,,2013-08-06 07:32:00,
2013-08-06 03:43:00,74.0,72.0,29.93,NNW,330,2.0,3.0,91,-99.99,,,-99.99,,2013-08-06 07:43:00,
2013-08-06 03:53:00,74.0,72.0,29.92,NW,318,3.0,4.0,92,-99.99,,,-99.99,,2013-08-06 07:53:00,
2013-08-06 04:02:00,74.0,72.0,29.92,NW,318,3.0,4.0,92,-99.99,,,-99.99,,2013-08-06 08:02:00,
2013-08-06 04:11:00,74.0,71.0,29.92,WSW,249,2.0,3.0,92,-99.99,,,-99.99,,2013-08-06 08:11:00,
2013-08-06 04:22:00,74.0,71.0,29.92,WSW,249,2.0,3.0,92,-99.99,,,-99.99,,2013-08-06 08:22:00,
2013-08-06 04:33:00,74.0,71.0,29.92,East,101,3.0,4.0,92,-99.99,,,-99.99,,2013-08-06 08:33:00,
2013-08-06 04:43:00,74.0,71.0,29.92,SE,137,1.0,2.0,92,-99.99,,,-99.99,,2013-08-06 08:43:00,
2013-08-06 04:52:00,74.0,71.0,29.92,South,185,2.0,3.0,92,-99.99,,,-99.99,,2013-08-06 08:52:00,
2013-08-06 05:01:00,74.0,71.0,29.92,South,185,2.0,3.0,92,-99.99,,,-99.99,,2013-08-06 09:01:00,
2013-08-06 05:22:00,74.0,71.0,29.93,East,91,2.0,4.0,92,-99.99,,,-99.99,,2013-08-06 09:22:00,
2013-08-06 05:32:00,74.0,71.0,29.93,ESE,116,3.0,4.0,92,-99.99,,,-99.99,,2013-08-06 09:32:00,
2013-08-06 05:43:00,73.0,71.0,29.93,East,97,4.0,6.0,92,-99.99,,,-99.99,,2013-08-06 09:43:00,
2013-08-06 05:52:00,73.0,71.0,29.93,East,97,4.0,6.0,92,-99.99,,,-99.99,,2013-08-06 09:52:00,
2013-08-06 06:01:00,73.0,71.0,29.93,East,97,4.0,6.0,92,-99.99,,,-99.99,,2013-08-06 10:01:00,
2013-08-06 06:12:00,74.0,72.0,29.93,ESE,102,4.0,6.0,92,-99.99,,,-99.99,,2013-08-06 10:12:00,
2013-08-06 06:32:00,74.0,72.0,29.93,ESE,105,2.0,3.0,92,-99.99,,,-99.99,,2013-08-06 10:32:00,
2013-08-06 06:43:00,74.0,72.0,29.94,South,176,1.0,2.0,92,-99.99,,,-99.99,,2013-08-06 10:43:00,
2013-08-06 07:02:00,74.0,72.0,29.94,SW,234,1.0,2.0,92,-99.99,,,-99.99,,2013-08-06 11:02:00,
2013-08-06 07:22:00,74.0,71.0,29.94,SSW,209,1.0,2.0,92,-99.99,,,-99.99,,2013-08-06 11:22:00,
2013-08-06 07:32:00,74.0,71.0,29.95,NE,46,2.0,2.0,92,-99.99,,,-99.99,,2013-08-06 11:32:00,
2013-08-06 07:43:00,74.0,72.0,29.96,South,185,2.0,3.0,92,-99.99,,,-99.99,,2013-08-06 11:43:00,
2013-08-06 07:53:00,74.0,72.0,29.96,South,185,2.0,3.0,92,-99.99,,,-99.99,,2013-08-06 11:53:00,
2013-08-06 08:02:00,75.0,73.0,29.96,ESE,116,1.0,2.0,92,-99.99,,,-99.99,,2013-08-06 12:02:00,
2013-08-06 08:11:00,75.0,73.0,29.96,ESE,116,1.0,2.0,92,-99.99,,,-99.99,,2013-08-06 12:11:00,
2013-08-06 08:22:00,75.0,73.0,29.96,ESE,116,1.0,2.0,92,-99.99,,,-99.99,,2013-08-06 12:22:00,
2013-08-06 08:43:00,76.0,74.0,29.97,ENE,61,3.0,4.0,92,-99.99,,,-99.99,,2013-08-06 12:43:00,
2013-08-06 08:52:00,76.0,74.0,29.97,ENE,61,3.0,4.0,92,-99.99,,,-99.99,,2013-08-06 12:52:00,
2013-08-06 09:02:00,77.0,74.0,29.97,ENE,77,4.0,5.0,91,-99.99,,,-99.99,,2013-08-06 13:02:00,
2013-08-06 09:11:00,77.0,74.0,29.97,ENE,77,4.0,5.0,91,-99.99,,,-99.99,,2013-08-06 13:11:00,
2013-08-06 10:01:00,80.0,75.0,29.98,SSE,152,2.0,4.0,82,-99.99,,,-99.99,,2013-08-06 14:01:00,
2013-08-06 10:22:00,81.0,75.0,29.98,South,181,2.0,4.0,80,-99.99,,,-99.99,,2013-08-06 14:22:00,
2013-08-06 10:32:00,81.0,75.0,29.98,South,181,2.0,4.0,80,-99.99,,,-99.99,,2013-08-06 14:32:00,
2013-08-06 10:53:00,83.0,74.0,29.99,SSE,147,2.0,5.0,73,-99.99,,,-99.99,,2013-08-06 14:53:00,
2013-08-06 11:12:00,84.0,74.0,30.00,East,99,3.0,6.0,71,-99.99,,,-99.99,,2013-08-06 15:12:00,
2013-08-06 11:52:00,86.0,75.0,30.01,East,84,3.0,5.0,68,-99.99,,,-99.99,,2013-08-06 15:52:00,
2013-08-06 12:02:00,86.0,75.0,30.01,SE,136,2.0,5.0,68,-99.99,,,-99.99,,2013-08-06 16:02:00,
2013-08-06 12:11:00,86.0,75.0,30.01,SE,136,2.0,5.0,68,-99.99,,,-99.99,,2013-08-06 16:11:00,
2013-08-06 12:30:00,88.0,74.0,29.99,SE,131,4.0,7.0,63,-99.99,,,-99.99,,2013-08-06 16:30:00,
2013-08-06 12:52:00,87.0,74.0,30.00,ESE,115,4.0,7.0,65,-99.99,,,-99.99,,2013-08-06 16:52:00,
2013-08-06 13:02:00,88.0,74.0,29.99,SE,131,4.0,7.0,63,-99.99,,,-99.99,,2013-08-06 17:02:00,
2013-08-06 13:11:00,88.0,74.0,29.99,SE,131,4.0,7.0,63,-99.99,,,-99.99,,2013-08-06 17:11:00,
2013-08-06 13:21:00,88.0,74.0,29.99,SE,131,4.0,7.0,63,-99.99,,,-99.99,,2013-08-06 17:21:00,
2013-08-06 13:44:00,88.0,75.0,29.99,ESE,103,4.0,8.0,64,-99.99,,,-99.99,,2013-08-06 17:44:00,
2013-08-06 14:11:00,87.0,74.0,29.98,East,89,4.0,7.0,63,-99.99,,,-99.99,,2013-08-06 18:11:00,
2013-08-06 14:32:00,88.0,73.0,29.97,SE,131,2.0,5.0,60,-99.99,,,-99.99,,2013-08-06 18:32:00,
2013-08-06 14:43:00,89.0,73.0,29.97,SSE,165,4.0,8.0,57,-99.99,,,-99.99,,2013-08-06 18:43:00,
2013-08-06 15:11:00,90.0,72.0,29.97,SE,146,3.0,6.0,55,-99.99,,,-99.99,,2013-08-06 19:11:00,
2013-08-06 15:42:00,90.0,71.0,29.95,East,86,5.0,9.0,53,-99.99,,,-99.99,,2013-08-06 19:42:00,
2013-08-06 16:01:00,91.0,72.0,29.95,ENE,75,6.0,12.0,53,-99.99,,,-99.99,,2013-08-06 20:01:00,
2013-08-06 16:22:00,91.0,72.0,29.94,ENE,58,5.0,8.0,53,-99.99,,,-99.99,,2013-08-06 20:22:00,
2013-08-06 16:32:00,91.0,72.0,29.94,ENE,58,5.0,8.0,53,-99.99,,,-99.99,,2013-08-06 20:32:00,
2013-08-06 16:44:00,91.0,73.0,29.93,ENE,76,6.0,10.0,54,-99.99,,,-99.99,,2013-08-06 20:44:00,
2013-08-06 17:01:00,91.0,73.0,29.94,ESE,106,4.0,10.0,54,-99.99,,,-99.99,,2013-08-06 21:01:00,
2013-08-06 17:22:00,91.0,72.0,29.93,NE,55,5.0,9.0,53,-99.99,,,-99.99,,2013-08-06 21:22:00,
2013-08-06 17:32:00,91.0,72.0,29.93,NE,55,5.0,9.0,53,-99.99,,,-99.99,,2013-08-06 21:32:00,
2013-08-06 17:43:00,92.0,72.0,29.93,ENE,57,5.0,9.0,51,-99.99,,,-99.99,,2013-08-06 21:43:00,
2013-08-06 17:52:00,90.0,73.0,29.93,East,79,6.0,15.0,57,-99.99,,,-99.99,,2013-08-06 21:52:00,
2013-08-06 18:01:00,90.0,73.0,29.93,East,79,6.0,15.0,57,-99.99,,,-99.99,,2013-08-06 22:01:00,
2013-08-06 18:11:00,86.0,73.0,29.92,ENE,70,9.0,13.0,65,-99.99,,,-99.99,,2013-08-06 22:11:00,
2013-08-06 18:22:00,86.0,73.0,29.92,ENE,70,9.0,13.0,65,-99.99,,,-99.99,,2013-08-06 22:22:00,
2013-08-06 18:43:00,86.0,74.0,29.92,East,82,7.0,10.0,67,-99.99,,,-99.99,,2013-08-06 22:43:00,
2013-08-06 19:02:00,85.0,74.0,29.93,NE,55,5.0,8.0,68,-99.99,,,-99.99,,2013-08-06 23:02:00,
2013-08-06 19:22:00,85.0,73.0,29.93,ENE,61,6.0,8.0,67,-99.99,,,-99.99,,2013-08-06 23:22:00,
2013-08-06 19:33:00,85.0,73.0,29.93,ENE,61,6.0,8.0,67,-99.99,,,-99.99,,2013-08-06 23:33:00,
2013-08-06 19:52:00,85.0,73.0,29.94,ENE,66,6.0,9.0,67,-99.99,,,-99.99,,2013-08-06 23:52:00,
2013-08-06 20:01:00,84.0,74.0,29.95,ENE,76,5.0,7.0,69,-99.99,,,-99.99,,2013-08-07 00:01:00,
2013-08-06 20:11:00,84.0,74.0,29.95,ENE,76,5.0,7.0,69,-99.99,,,-99.99,,2013-08-07 00:11:00,
2013-08-06 20:43:00,83.0,74.0,29.95,East,80,4.0,6.0,72,-99.99,,,-99.99,,2013-08-07 00:43:00,
2013-08-06 20:52:00,83.0,74.0,29.95,NE,51,5.0,7.0,74,-99.99,,,-99.99,,2013-08-07 00:52:00,
2013-08-06 21:01:00,82.0,74.0,29.96,ENE,59,3.0,6.0,77,-99.99,,,-99.99,,2013-08-07 01:01:00,
2013-08-06 21:22:00,82.0,74.0,29.96,ENE,59,5.0,9.0,77,-99.99,,,-99.99,,2013-08-07 01:22:00,
2013-08-06 21:32:00,82.0,74.0,29.96,ENE,59,5.0,9.0,77,-99.99,,,-99.99,,2013-08-07 01:32:00,
2013-08-06 21:43:00,82.0,74.0,29.96,ENE,69,6.0,9.0,76,-99.99,,,-99.99,,2013-08-07 01:43:00,
2013-08-06 22:02:00,82.0,73.0,29.96,East,84,6.0,10.0,75,-99.99,,,-99.99,,2013-08-07 02:02:00,
2013-08-06 22:11:00,82.0,73.0,29.96,East,84,6.0,10.0,75,-99.99,,,-99.99,,2013-08-07 02:11:00,
2013-08-06 22:22:00,82.0,73.0,29.96,East,84,6.0,10.0,75,-99.99,,,-99.99,,2013-08-07 02:22:00,
2013-08-06 22:33:00,81.0,73.0,29.97,East,90,5.0,8.0,76,-99.99,,,-99.99,,2013-08-07 02:33:00,
2013-08-06 22:53:00,80.0,74.0,29.98,SSE,162,3.0,4.0,81,-99.99,,,-99.99,,2013-08-07 02:53:00,
2013-08-06 23:01:00,80.0,74.0,29.98,SSE,162,3.0,4.0,81,-99.99,,,-99.99,,2013-08-07 03:01:00,
2013-08-06 23:12:00,80.0,74.0,29.98,SSE,162,3.0,4.0,81,-99.99,,,-99.99,,2013-08-07 03:12:00,
2013-08-06 23:23:00,80.0,74.0,29.98,ESE,104,4.0,6.0,82,-99.99,,,-99.99,,2013-08-07 03:23:00,
2013-08-06 23:32:00,80.0,74.0,29.98,ESE,104,4.0,6.0,82,-99.99,,,-99.99,,2013-08-07 03:32:00,
2013-08-06 23:43:00,80.0,74.0,29.98,ENE,67,3.0,5.0,83,-99.99,,,-99.99,,2013-08-07 03:43:00,
2013-08-06 23:52:00,80.0,74.0,29.98,ENE,67,3.0,5.0,83,-99.99,,,-99.99,,2013-08-07 03:52:00,